Regional Weather Roundup
Issued by NWS

Home | Current Version | Previous Version | Text Only | Print | Product List | Glossary Off
Versions: 1 2 3 4 5 6 7 8 9 10 11 12 13 14 15 16 17 18 19 20 21 22 23 24 25 26 27 28 29 30 31 32 33 34 35 36 37 38 39 40 41 42 43 44 45 46 47 48 49

000
ASUS45 KBOU 182010
RWRCO

WEATHER ROUNDUP FOR COLORADO
NATIONAL WEATHER SERVICE DENVER/BOULDER CO
100 PM MST SUN FEB 18 2018

NOTE: "FAIR" INDICATES FEW OR NO CLOUDS BELOW 12000 FEET WITH NO
SIGNIFICANT WEATHER AND/OR OBSTRUCTIONS TO VISIBILITY.

COZ001>005-013-030-031-182100-
...NORTHWEST COLORADO...

CITY           SKY/WX    TMP DP  RH WIND       PRES   REMARKS
CRAIG          FAIR      48  22  35 SW20      29.54F
HAYDEN         FAIR      45  21  38 SW21G26   29.57F
MEEKER         FAIR      49  18  29 SW24G41   29.58F
RANGELY        FAIR      56  19  23 SW20G32   29.52F
RABBIT EARS PA CLOUDY    30  16  55 SW14G30   29.63F WCI  20
STEAMBOAT SPGS PTSUNNY   45  17  32 W5        29.57F
WALDEN         FAIR      41  16  36 SW23G32   29.59F
$$

COZ006>008-011-182100-
...WEST CENTRAL VALLEYS...

CITY           SKY/WX    TMP DP  RH WIND       PRES   REMARKS
GRAND JUNCTION FAIR      56  25  30 NW9       29.62F
MONTROSE       FAIR      57  13  17 SW13G25   29.70F
EAGLE          FAIR      51  19  28 SW23G31   29.62F
RIFLE          FAIR      50  22  33 W17G25    29.60F
DELTA          FAIR      63  14  15 S20G25    29.66F
NUCLA          FAIR      55  18  22 SW17G29   29.79F
$$

COZ017>023-064>068-182100-
...SOUTHWEST COLORADO...

CITY           SKY/WX    TMP DP  RH WIND       PRES   REMARKS
DURANGO        FAIR      49  21  33 CALM      29.87F
CORTEZ         FAIR      54  18  24 SW17G24   29.82F
PAGOSA SPRINGS FAIR      44  22  40 S8        29.90F
TELLURIDE      FAIR      42   5  21 S21G37    29.84F
WOLF CREEK PAS CLOUDY    21  19  93 S29G39    29.91F WCI   3
$$

COZ009-010-012-014-032>034-037-058>063-182100-
...CENTRAL COLORADO...

CITY           SKY/WX    TMP DP  RH WIND       PRES   REMARKS
ASPEN          FAIR      47  11  23 SW21G31   29.65F
BUENA VISTA    FAIR      52   0  11 W23G39    29.63F
COPPER MTN     LGT SNOW  34   9  35 SW17G37   29.72F WCI  23
BERTHOUD PASS  FAIR      25  14  63 W60G76    29.60F WCI   3
COTTONWOOD PAS FAIR      45   1  16 W22G55    29.63F
GUNNISON       FAIR      49  11  21 W20G30    29.71S
GRANBY         FAIR      43  17  36 W13       29.64F
KREMMLING      FAIR      50  19  29 SW23G29   29.61F
LEADVILLE      FAIR      38   7  27 SW21G35   29.67F
MONARCH PASS   FAIR      27  10  50 W51G61    29.85F HAZE    WCI   7
SALIDA         FAIR      55   4  13 SW20G37   29.74F
SUNLIGHT       FAIR      32  16  51 SW24G37   29.72F WCI  19
WILKERSON PASS FAIR      36  -4  18 SW31G48   29.68F
$$

COZ069>075-182100-
...SAN LUIS VALLEY/SANGRE DE CRISTO MOUNTAINS...

CITY           SKY/WX    TMP DP  RH WIND       PRES   REMARKS
ALAMOSA        FAIR      53   6  15 SW28G35   29.73F
DEL NORTE      FAIR      47  13  25 W33G45    29.75F
LA VETA PASS   FAIR      39  14  35 S33G58    29.82F
SAGUACHE       FAIR      54   1  12 W26G38    29.70F
$$

COZ035-036-038>040-182100-
...NORTHERN COLORADO FRONT RANGE...

CITY           SKY/WX    TMP DP  RH WIND       PRES   REMARKS
DENVER INTL AP FAIR      68   8   9 NW12G20   29.43F
AURORA         MOSUNNY   67   1   7 W17       29.44F
FRONT RANGE AP PTSUNNY   66   5   9 CALM      29.45F
ERIE MUNI ARPT FAIR      66   6   9 W17G35    29.48F
BOULDER MUN AP FAIR      64  14  14 SW14G24   29.43F
CENTENNIAL     FAIR      65   7  10 W18G31    29.45F
BROOMFIELD     PTSUNNY   66   9  10 W23G40    29.45F
FORT COLLINS   FAIR      64  14  14 W23G35    29.42F
LONGMONT       FAIR      67  11  11 W15G35    29.45S
$$

COZ041-046-047-076>085-087-088-182100-
...PIKES PEAK/PALMER DIVIDE AND SOUTHERN FOOTHILLS...

CITY           SKY/WX    TMP DP  RH WIND       PRES   REMARKS
COLO. SPRINGS  FAIR      64   1   8 W18G28    29.53F
A. F. ACADEMY  FAIR      61  -3   7 SW23G33   29.53F
SCHRIEVER AFB  NOT AVBL
CHEYENNE MTN   FAIR      56   2  11 E16G28    29.47F
ELLICOTT         N/A    N/A N/A N/A W29G40    29.53F
FALCON         FAIR      61  -2   7 W26G33    29.56F
FORT CARSON    FAIR      64  -1   7 W23G36    29.53F
LIMON          FAIR      64   5   9 S21G30    29.49F
MONUMENT HILL  FAIR      57   3  11 W38G47    29.54F
CANON CITY     SUNNY     68  10  10 W18G32    29.53F
WALSENBURG     NOT AVBL
TRINIDAD       FAIR      67   4   8 W35G45    29.60F
$$

COZ042>045-048>051-090-091-182100-
...NORTHEAST COLORADO...

CITY           SKY/WX    TMP DP  RH WIND       PRES   REMARKS
GREELEY ARPT   FAIR      67  12  12 W14G21    29.43F
AKRON          FAIR      68  12  11 SW16G25   29.44F
BURLINGTON     FAIR      67  12  12 SW26G38   29.49F
WRAY           FAIR      73  10   9 SW10G16   29.42F
YUMA           NOT AVBL
STERLING       FAIR      70  12  11 SW13G21   29.40F
HOLYOKE        FAIR      73  12   9 CALM      29.43F
FORT MORGAN    FAIR      68   6   8 SW16      29.43F
$$

COZ086-089-092>099-182100-
...SOUTHEAST COLORADO...

CITY           SKY/WX    TMP DP  RH WIND       PRES   REMARKS
PUEBLO         FAIR      68  12  11 MISG      29.52F
LA JUNTA       FAIR      68  14  12 SW25G36   29.53F
LAMAR          LGT RAIN  72   8   8 SW21G29   29.51F
SPRINGFIELD      N/A     70  13  11 SW25G37   29.56F
$$




USA.gov is the U.S. government's official web portal to all federal, state and local government web resources and services.